sat.trackr.live / text

‹ back to catalog

STARLINK-34574

NORAD 64714 · 2025-142U

PAYLOAD ACTIVE UNKNOWN

§ Identity

Operator
Country
US
Launch date
2025-06-28
Launch site
AFWTR
Launch vehicle
Mass (kg)
RCS (m²)

Purposes: comms

External: N2YO · Heavens-Above · Gunter

§ Orbital elements

Epoch: 2026-05-25T05:24:39.261024Z

Period
96.11 min
Inclination
70.0002°
Eccentricity
0.0004029
Mean motion
14.98337495 rev/d
Perigee alt
569.2 km
Apogee alt
574.8 km
Semi-major
6,950.2 km
B*
1.4087e-4
RAAN
121.5364°
Arg perigee
264.8826°
Mean anomaly
95.1874°
Rev number
5,095

§ Raw data

STARLINK-345741 64714U 25142U   26145.22545441  .00001589  00000+0  14087-3 0  99962 64714  70.0002 121.5364 0004029 264.8826  95.1874 14.98337495 50952

JSON: /api/v1/satellites/64714 · /tle

For live sub-satellite position, see the globe view (requires WebGL).

§ Visibility from observer

Set your observer location to see the next 7 days of passes ≥ 10°. The values pass through the URL so the page stays shareable.

No JS? Fill the form by hand. The geolocation button needs JavaScript.